Location: Kershaw
(34.5481°N, 80.5823°W)
Time: 03:42:01
(UTC+00:00)

Explorer 7 - Pass Details

Date: 08 October 2022
Orbit: 481 x 665 km, 50.3° (Epoch: 30 November)

Event Time Altitude Azimuth Distance (km) Brightness Sun altitude
Rises 14:47:02 0° 267° (W) 2,976 10.2 37.3°
Reaches altitude 10° 14:49:47 10° 281° (WNW) 2,078 9.4 37.7°
Maximum altitude 14:53:39 23° 335° (NNW) 1,392 8.6 38.2°
Drops below altitude 10° 14:57:31 10° 28° (NNE) 2,084 9.7 38.8°
Sets 15:00:17 0° 43° (NE) 2,985 10.5 39.2°
